Orbital Elements at Epoch 2459000.5 (2020-May-31.0) TDB
Reference: JPL 16 (heliocentric ecliptic J2000)
Element | Value | Uncertainty (1-sigma) | Units |
e | .2430990121482419 | 1.0743e-07 | |
a | 2.549514157979493 | 1.9859e-08 | au |
q | 1.929729784716721 | 2.8459e-07 | au |
i | 8.741138979950124 | 5.1e-06 | deg |
node | 288.3382376489297 | 5.091e-05 | deg |
peri | 85.03171811866471 | 5.6349e-05 | deg |
M | 340.6722304581938 | 1.9825e-05 | deg |
tp | 2459080.329573084387 (2020-Aug-18.82957308) | 8.12e-05 | TDB |
period | 1486.909612007598 4.07 | 1.7373e-05 4.756e-08 | d yr |
n | .2421129012098688 | 2.8288e-09 | deg/d |
Q | 3.169298531242264 | 2.4686e-08 | au |
|
| | Orbit Determination Parameters
Additional Information
|